Temp
64 64 64 64 64 64 64 64 64 64 64 64 64 64 63 64 64 68 71 76 77 70 70 79 78 77 76 72 71 69 55 54 60 62 62 69 64 68 70 64 68 72 67 69 71
63 63 63 64 64 63 64 64 64 63 63 63 63 63 63 63 69 73 74 74 72 71 77 75 73 74 68 69 68 60 54 59 68 67 65 69 66 67 65 66 67 69 74 75 69
62 62 63 63 63 63 63 64 63 63 63 63 63 63 62 62 69 74 71 72 71 72 79 80 78 74 66 69 66 63 56 66 69 68 67 65 65 69 64 62 66 67 70 69 70
62 62 62 62 62 63 63 63 63 63 63 63 63 62 62 70 61 74 70 71 70 77 78 75 72 65 63 62 70 60 67 68 67 68 64 62 66 63 65 68 72 72 73 71 71
61 61 61 61 62 62 63 63 63 63 62 62 63 62 67 68 72 75 69 70 74 74 73 72 69 67 61 65 67 61 64 68 67 66 64 66 62 62 64 71 73 74 73 69 69
61 61 61 61 61 62 62 63 63 62 62 63 63 61 67 62 76 79 75 71 77 74 73 73 70 69 65 64 61 64 62 63 65 65 65 62 62 62 66 69 71 72 70 70 70
61 61 60 60 61 61 62 62 62 62 62 63 63 66 68 68 77 77 75 73 74 75 71 74 73 65 65 61 64 63 56 61 64 65 62 61 56 58 67 69 68 69 69 70 71
61 60 60 60 60 61 61 62 62 62 62 63 63 68 63 71 73 73 75 72 74 74 71 71 71 66 63 65 62 57 56 48 60 62 57 60 49 64 68 66 66 66 66 68 69
60 60 60 60 60 60 61 61 62 63 63 63 64 65 63 69 69 72 73 70 71 71 70 74 67 62 61 52 49 53 45 50 56 63 59 56 50 61 67 65 66 64 65 66 67
60 60 60 60 60 60 61 61 64 63 64 70 71 61 66 65 67 69 70 70 66 65 64 62 60 53 52 50 41 47 48 52 50 59 59 54 52 60 65 64 64 61 64 63 65
60 60 60 60 60 61 62 67 62 59 64 64 65 66 68 68 68 66 68 66 66 61 53 57 50 47 53 56 56 51 50 48 54 60 54 53 53 57 64 63 61 61 61 62 63
60 60 60 60 61 61 61 63 60 59 54 67 68 65 66 66 61 63 67 59 58 52 56 49 45 57 60 58 54 51 48 48 53 58 52 51 51 57 60 61 60 59 61 60 58
60 60 60 60 60 61 64 62 66 64 53 61 63 62 62 63 59 61 63 60 55 52 54 49 55 60 56 53 52 50 47 48 47 51 51 47 46 51 61 61 63 63 60 58 55
60 59 60 60 57 66 62 64 65 63 48 55 54 58 60 61 54 63 64 59 56 51 53 52 55 53 51 50 51 44 50 49 47 42 37 49 32 48 56 56 59 56 54 53 52
59 59 60 59 59 61 62 65 63 58 34 56 54 64 60 55 55 54 60 57 51 52 50 49 49 47 47 51 53 48 49 47 46 40 38 42 34 45 52 52 50 50 51 50 50
58 59 59 58 57 57 58 58 58 44 33 50 54 52 52 54 54 55 55 58 55 51 52 51 52 51 52 53 52 52 46 46 44 40 30 41 41 42 47 48 47 49 49 49 49
58 58 57 59 54 53 54 54 41 36 54 47 49 53 52 51 52 52 49 47 45 39 41 48 49 51 53 46 48 45 41 31 29 27 29 45 38 44 53 53 50 47 47 47 47
57 57 56 57 54 54 54 46 33 42 46 55 53 53 49 53 52 51 49 46 51 49 43 40 39 48 51 49 45 43 44 31 24 25 30 39 31 44 48 50 50 49 47 46 45
57 56 55 56 55 55 49 37 38 45 52 48 51 47 48 52 51 50 49 48 51 52 43 41 42 49 50 52 50 44 38 46 35 27 24 35 43 51 49 47 47 46 44 42 43
54 53 54 57 57 54 44 38 42 51 54 52 41 46 41 45 45 47 48 49 48 51 53 46 36 48 46 48 46 44 46 34 34 22 17 31 32 39 42 42 43 41 40 41 42
50 47 51 57 55 48 39 40 46 53 52 46 45 45 44 43 46 46 48 49 52 49 51 48 42 40 44 42 42 40 38 39 40 35 26 26 31 44 40 41 39 39 41 39 39
46 40 52 55 44 45 41 45 47 47 49 46 46 44 42 42 37 38 41 48 54 50 44 46 38 31 37 47 49 46 43 42 33 30 31 32 33 45 42 41 41 40 41 39 39
46 47 53 51 39 40 44 43 45 44 45 44 42 46 45 39 34 38 41 46 48 48 41 44 34 26 28 38 42 35 37 39 39 32 28 26 30 49 46 41 40 38 38 40 40
46 38 44 45 47 44 43 42 40 47 46 47 45 46 42 39 44 41 43 41 42 41 42 44 35 29 25 33 34 29 33 36 34 26 28 28 32 40 44 43 38 36 37 36 38
44 41 44 35 39 41 45 44 42 41 46 46 43 44 42 37 39 39 42 39 39 40 38 37 30 32 34 34 33 31 30 32 30 31 25 30 31 37 40 37 34 37 38 37 37
40 38 40 39 43 40 41 40 40 43 42 40 40 42 41 36 35 31 34 34 34 34 34 34 24 27 24 31 31 28 31 32 31 32 31 31 30 38 34 35 31 35 35 35 36
41 42 38 39 37 37 38 40 40 42 37 40 39 37 34 36 37 37 38 36 35 32 30 29 24 18 15 28 25 16 27 30 31 34 33 26 26 27 29 32 32 31 34 35 36
MSLP
1018.86 1018.75 1018.61 1018.42 1018.32 1018.13 1017.95 1017.79 1017.63 1017.46 1017.30 1017.08 1016.85 1016.62 1016.37 1016.09 1015.54 1015.44 1014.31 1013.44 1013.22 1013.34 1013.66 1013.51 1013.50 1013.33 1013.28 1013.11 1013.36 1013.24 1013.07 1012.01 1011.10 1010.40 1010.09 1010.16 1010.29 1010.23 1010.27 1010.47 1010.28 1010.13 1010.21 1010.47 1010.90
1018.91 1018.81 1018.62 1018.47 1018.31 1018.19 1017.92 1017.69 1017.54 1017.31 1017.14 1016.93 1016.76 1016.57 1016.36 1016.11 1015.41 1014.22 1013.30 1013.05 1013.24 1013.50 1013.64 1013.43 1013.26 1013.28 1013.33 1013.03 1013.30 1013.46 1012.93 1011.92 1010.94 1010.74 1010.83 1010.62 1010.75 1010.83 1010.77 1010.74 1010.20 1010.03 1009.59 1009.69 1010.64
1018.93 1018.78 1018.70 1018.53 1018.36 1018.16 1017.99 1017.75 1017.49 1017.24 1016.98 1016.79 1016.61 1016.42 1016.27 1016.17 1015.21 1013.53 1013.25 1013.15 1013.27 1013.49 1013.35 1013.08 1012.88 1012.95 1013.19 1012.82 1013.00 1012.92 1012.74 1011.95 1011.57 1011.36 1011.52 1011.58 1011.47 1011.28 1011.02 1010.76 1010.17 1010.24 1009.98 1009.88 1010.43
1018.93 1018.85 1018.68 1018.55 1018.40 1018.22 1017.97 1017.72 1017.40 1017.15 1016.93 1016.69 1016.54 1016.40 1016.19 1015.83 1014.92 1013.47 1013.33 1013.38 1013.48 1013.48 1013.39 1013.14 1013.14 1013.19 1013.05 1012.84 1012.51 1012.67 1012.56 1012.40 1011.97 1011.76 1012.06 1012.20 1011.92 1011.70 1011.43 1010.03 1010.03 1009.78 1009.64 1009.69 1009.95
1018.90 1018.80 1018.70 1018.57 1018.39 1018.20 1017.93 1017.62 1017.32 1017.00 1016.72 1016.51 1016.43 1016.37 1016.11 1015.44 1013.86 1013.45 1013.45 1013.47 1013.60 1013.71 1013.40 1013.20 1013.14 1013.09 1013.00 1012.54 1012.41 1012.46 1012.51 1012.46 1012.10 1012.13 1012.11 1012.23 1012.11 1012.05 1011.00 1009.94 1009.84 1009.49 1009.29 1009.36 1009.58
1018.75 1018.65 1018.58 1018.45 1018.32 1018.08 1017.79 1017.46 1017.13 1016.82 1016.49 1016.28 1016.23 1016.37 1016.18 1014.75 1013.13 1013.17 1013.38 1013.70 1013.43 1013.55 1013.25 1013.17 1012.94 1013.04 1012.99 1012.86 1013.01 1012.55 1012.71 1012.61 1012.41 1012.08 1012.02 1012.19 1011.82 1011.92 1010.31 1009.58 1009.45 1009.27 1009.05 1009.01 1009.00
1018.69 1018.53 1018.33 1018.26 1018.10 1017.88 1017.61 1017.24 1016.84 1016.52 1016.25 1016.06 1016.02 1015.97 1015.13 1013.73 1013.04 1013.28 1013.38 1013.37 1013.48 1013.38 1013.38 1013.03 1013.09 1013.39 1013.15 1013.06 1013.15 1013.02 1013.17 1012.50 1011.59 1011.18 1011.77 1011.92 1011.89 1011.27 1010.00 1009.82 1009.49 1009.25 1008.92 1008.91 1008.97
1018.49 1018.44 1018.25 1018.04 1017.86 1017.68 1017.38 1016.95 1016.53 1016.24 1016.09 1015.92 1015.97 1015.63 1014.55 1013.53 1013.33 1013.48 1013.42 1013.45 1013.53 1013.46 1013.57 1013.57 1013.55 1013.81 1013.69 1013.43 1013.44 1013.35 1013.13 1012.44 1011.21 1011.17 1012.09 1012.12 1011.70 1010.94 1010.21 1010.08 1009.73 1009.43 1009.51 1009.18 1008.84
1018.30 1018.21 1018.12 1017.95 1017.72 1017.43 1017.09 1016.62 1016.25 1016.12 1016.05 1016.00 1016.01 1015.41 1014.18 1013.70 1013.54 1013.54 1013.57 1013.43 1013.56 1013.68 1013.81 1013.88 1013.93 1013.91 1013.82 1014.14 1014.01 1013.33 1012.91 1012.27 1011.57 1011.14 1011.68 1012.07 1011.75 1010.94 1010.15 1010.05 1009.01 1009.44 1009.53 1009.24 1008.84
1017.89 1017.99 1017.93 1017.82 1017.56 1017.21 1016.73 1016.11 1015.91 1016.07 1015.87 1015.47 1015.21 1015.27 1013.77 1013.54 1013.62 1013.69 1013.74 1013.67 1013.75 1013.96 1014.16 1014.16 1014.11 1014.06 1014.06 1014.17 1013.78 1013.14 1013.01 1012.57 1012.24 1011.75 1011.68 1011.98 1011.55 1010.95 1009.95 1009.49 1009.13 1009.62 1009.56 1009.58 1009.73
1017.43 1017.65 1017.61 1017.61 1017.47 1017.07 1016.56 1015.79 1016.37 1016.30 1015.31 1014.10 1013.81 1013.23 1013.16 1013.56 1013.69 1013.69 1013.78 1013.88 1013.83 1014.05 1014.09 1014.04 1014.25 1013.68 1013.45 1013.31 1013.26 1013.35 1013.31 1013.10 1012.60 1012.26 1012.14 1011.95 1011.47 1011.24 1009.41 1009.19 1009.27 1009.73 1009.62 1010.18 1011.40
1016.95 1017.28 1017.36 1017.36 1017.19 1016.95 1016.81 1016.19 1016.26 1016.73 1015.36 1013.48 1013.02 1012.94 1013.22 1013.42 1013.60 1013.61 1013.84 1013.99 1013.94 1013.92 1013.90 1014.43 1013.83 1013.22 1012.95 1012.97 1013.20 1013.40 1013.45 1013.29 1012.71 1012.40 1012.71 1012.34 1011.82 1010.86 1009.52 1008.83 1009.23 1009.67 1010.24 1011.18 1012.22
1016.47 1016.83 1016.98 1017.16 1017.01 1016.82 1016.23 1016.19 1016.18 1016.21 1015.82 1013.37 1012.96 1013.03 1013.27 1013.69 1013.44 1013.38 1013.79 1013.61 1013.56 1013.72 1013.56 1013.44 1012.79 1012.60 1013.20 1013.31 1013.38 1013.49 1013.59 1013.47 1013.38 1013.06 1012.83 1012.76 1011.73 1010.39 1008.83 1008.46 1009.44 1010.16 1011.76 1012.82 1014.05
1016.10 1016.27 1016.78 1016.93 1017.31 1015.83 1015.98 1016.08 1016.19 1016.24 1015.56 1013.26 1013.29 1013.12 1013.46 1013.55 1013.73 1013.71 1013.68 1013.87 1013.60 1013.51 1013.54 1013.11 1012.91 1013.06 1013.10 1013.21 1013.69 1013.80 1013.56 1013.87 1014.12 1014.22 1013.85 1013.23 1012.37 1011.26 1009.25 1009.40 1010.08 1011.94 1013.12 1014.55 1015.54
1015.65 1015.96 1016.31 1016.63 1016.56 1016.27 1016.48 1016.21 1016.24 1016.33 1015.38 1012.85 1013.15 1013.41 1013.33 1013.64 1013.96 1014.13 1014.16 1014.00 1013.68 1013.66 1013.86 1013.11 1013.13 1013.22 1012.98 1012.90 1013.10 1013.59 1013.80 1014.17 1014.39 1014.72 1014.48 1013.67 1013.29 1011.06 1009.85 1011.04 1012.35 1013.75 1014.73 1015.87 1016.72
1015.09 1015.34 1015.82 1016.49 1016.70 1016.75 1016.57 1016.69 1016.49 1016.53 1013.92 1012.65 1012.87 1013.13 1013.28 1013.33 1013.58 1014.08 1014.15 1014.32 1013.94 1013.71 1013.54 1013.31 1013.60 1013.43 1012.87 1012.92 1013.23 1013.81 1014.25 1014.44 1014.69 1015.42 1014.85 1013.00 1012.74 1011.32 1010.79 1011.91 1013.46 1014.64 1015.80 1016.90 1017.72
1014.42 1014.70 1015.40 1015.55 1016.18 1016.56 1016.87 1016.91 1016.77 1014.86 1012.59 1012.51 1012.31 1012.62 1012.68 1012.84 1013.25 1013.47 1013.76 1014.00 1013.63 1013.78 1013.46 1013.05 1012.90 1012.91 1013.02 1013.35 1013.68 1014.29 1014.90 1014.98 1015.36 1015.71 1014.52 1013.18 1012.98 1011.54 1011.35 1011.75 1013.04 1014.99 1016.67 1017.60 1018.35
1014.50 1014.86 1015.20 1015.50 1015.94 1016.33 1016.51 1016.96 1015.76 1013.80 1012.79 1012.26 1012.09 1012.30 1012.39 1012.39 1012.70 1013.07 1012.95 1013.32 1013.00 1012.94 1013.19 1013.01 1012.73 1012.90 1013.15 1013.07 1013.42 1014.24 1014.40 1015.16 1015.50 1015.88 1015.05 1014.38 1013.15 1012.26 1012.53 1013.52 1014.58 1015.85 1017.25 1018.35 1019.10
1014.46 1015.06 1015.31 1015.62 1015.85 1016.25 1016.57 1016.33 1014.93 1013.83 1013.00 1012.74 1012.70 1012.64 1012.58 1012.40 1012.63 1012.92 1012.81 1012.55 1012.36 1012.77 1013.25 1012.95 1012.82 1012.98 1013.15 1013.19 1013.53 1013.98 1014.42 1014.79 1015.51 1015.92 1015.81 1014.20 1013.27 1013.03 1013.75 1014.89 1016.03 1017.42 1018.43 1019.20 1019.69
1014.75 1015.01 1015.11 1015.31 1015.92 1016.21 1016.30 1015.71 1014.88 1014.03 1013.55 1013.55 1013.75 1013.89 1013.48 1013.40 1013.68 1013.43 1012.85 1012.39 1012.59 1012.92 1013.05 1013.69 1013.95 1013.58 1013.91 1013.83 1013.98 1014.48 1015.33 1015.57 1016.20 1016.96 1016.04 1013.94 1013.81 1014.05 1014.83 1016.27 1017.62 1018.60 1019.37 1019.75 1020.05
1015.06 1015.32 1015.35 1015.30 1015.69 1015.87 1015.45 1015.28 1014.62 1014.05 1014.30 1014.82 1014.56 1014.61 1014.68 1014.43 1014.27 1013.90 1013.33 1013.23 1013.18 1013.76 1013.67 1014.36 1014.90 1014.66 1014.55 1014.47 1014.55 1015.27 1015.49 1016.16 1016.62 1017.10 1016.57 1015.56 1014.98 1014.92 1015.96 1017.04 1018.02 1018.92 1019.56 1019.86 1020.22
1015.31 1015.55 1015.23 1015.38 1015.57 1015.01 1014.59 1014.44 1014.40 1014.22 1014.54 1014.94 1014.95 1015.22 1015.43 1015.55 1015.62 1015.34 1015.26 1014.50 1014.42 1014.58 1014.96 1015.39 1016.14 1016.23 1015.66 1015.07 1015.02 1015.41 1015.78 1016.56 1017.15 1017.30 1017.08 1016.67 1015.03 1015.39 1016.57 1017.75 1018.46 1019.12 1019.57 1019.84 1019.90
1015.21 1015.20 1015.19 1015.24 1014.60 1014.21 1013.87 1014.26 1014.42 1014.41 1014.54 1014.70 1014.49 1014.76 1015.41 1016.14 1016.36 1016.13 1016.30 1016.44 1015.83 1015.89 1016.78 1016.70 1017.48 1017.96 1017.03 1016.42 1016.39 1017.34 1017.65 1017.83 1018.04 1018.50 1017.69 1017.38 1016.01 1015.52 1016.84 1018.11 1018.70 1019.44 1020.02 1020.26 1020.18
1015.33 1015.49 1015.42 1014.78 1014.15 1014.10 1013.93 1013.82 1014.27 1014.16 1014.22 1014.63 1015.01 1015.19 1015.48 1016.48 1016.31 1015.94 1016.05 1016.85 1017.14 1017.78 1017.98 1018.05 1018.66 1019.12 1018.92 1018.29 1019.06 1019.40 1018.85 1018.70 1019.69 1019.47 1018.55 1017.67 1016.93 1016.60 1016.78 1017.72 1018.80 1019.46 1019.82 1020.25 1020.30
1015.66 1014.68 1014.11 1014.19 1013.76 1013.89 1013.67 1013.30 1013.35 1013.89 1014.19 1014.40 1014.70 1015.05 1015.66 1016.09 1016.44 1016.49 1017.18 1017.66 1018.24 1018.87 1019.32 1019.85 1020.18 1020.54 1020.27 1020.20 1020.57 1020.48 1019.60 1019.18 1019.95 1019.43 1019.56 1017.86 1018.27 1017.48 1018.13 1018.54 1019.02 1019.57 1020.05 1020.38 1020.56
1015.32 1015.21 1015.02 1014.46 1013.72 1014.04 1013.89 1013.11 1013.24 1013.63 1014.47 1014.88 1014.85 1015.30 1016.07 1016.60 1017.20 1017.86 1018.04 1018.71 1019.17 1019.85 1020.27 1021.10 1021.54 1021.77 1021.48 1021.55 1021.26 1020.61 1019.27 1019.71 1019.49 1019.37 1019.09 1019.07 1018.45 1018.88 1019.14 1019.17 1019.67 1020.35 1020.74 1020.85 1020.91
1015.77 1015.27 1015.20 1014.50 1014.12 1014.21 1013.44 1013.26 1013.35 1013.89 1015.04 1015.43 1015.84 1016.34 1017.12 1017.90 1018.19 1019.03 1019.76 1020.11 1020.38 1020.51 1020.97 1021.67 1022.65 1023.46 1022.90 1022.63 1022.45 1021.41 1019.13 1019.33 1019.22 1018.95 1019.23 1019.57 1019.80 1020.24 1019.99 1019.99 1020.25 1020.80 1020.98 1020.94 1020.69
Wind_Speed
6 7 7 8 8 9 9 10 11 11 10 11 11 11 10 12 12 4 6 0 2 11 1 5 5 5 4 3 2 2 3 5 8 5 1 7 2 2 2 3 6 6 4 3 9
5 7 8 9 10 11 11 11 12 12 11 11 12 12 11 11 5 10 2 5 7 9 5 6 6 5 4 3 2 2 3 5 6 6 7 9 7 8 5 8 11 7 10 8 9
5 6 8 9 10 11 12 12 12 11 11 11 12 12 11 10 6 2 5 5 8 8 7 7 6 3 7 5 5 5 4 6 9 5 7 6 8 7 7 9 10 10 10 3 7
5 6 7 9 10 11 12 13 12 12 11 11 11 10 11 5 5 3 1 4 6 8 6 3 5 3 5 7 9 7 8 9 6 4 3 5 9 9 9 18 9 11 9 7 9
6 6 7 8 10 11 12 13 13 12 11 11 9 8 5 5 5 5 5 6 6 3 7 7 7 6 6 6 6 6 9 11 6 7 7 8 9 9 14 17 13 13 9 7 7
7 7 8 8 9 11 12 14 15 13 12 9 6 2 3 7 4 4 5 4 6 7 7 7 5 4 6 6 6 7 8 9 9 13 8 9 10 5 10 8 10 9 8 9 9
8 8 7 9 10 11 12 14 15 13 9 9 5 4 5 10 2 5 5 1 2 5 7 4 4 1 5 6 6 5 7 10 16 11 5 6 8 9 16 8 9 9 9 9 9
8 8 8 9 10 11 12 14 15 9 5 2 4 4 7 2 5 1 3 3 3 1 3 5 3 5 4 5 4 5 6 4 2 5 2 7 8 11 9 9 14 11 10 11 9
9 9 9 9 10 11 13 15 9 4 2 2 4 3 5 1 2 4 4 2 4 2 3 1 2 3 3 3 5 7 5 7 7 8 7 7 7 8 11 9 21 10 9 8 7
9 9 9 9 10 12 15 11 3 4 5 5 5 2 4 2 4 2 1 2 2 5 3 4 4 3 3 5 5 5 7 8 7 7 10 6 10 9 13 11 15 8 8 6 8
9 9 8 8 10 11 9 2 3 2 5 7 1 4 5 4 2 4 1 3 3 4 5 6 4 7 11 12 8 5 7 9 8 9 8 9 9 9 21 14 12 9 5 9 17
10 9 8 8 9 11 5 4 3 0 7 10 13 5 3 1 2 6 4 7 5 7 8 2 7 12 9 9 6 7 10 11 7 5 5 8 11 17 21 16 8 4 7 14 13
10 9 7 6 9 7 4 2 2 2 5 5 2 2 2 5 5 4 8 4 5 7 8 11 7 9 5 6 9 8 8 8 10 6 5 6 8 9 7 7 8 9 18 18 17
11 10 8 5 2 1 2 7 3 2 5 7 5 3 4 2 3 3 2 2 6 6 9 11 1 2 7 7 5 9 0 2 4 4 4 8 7 6 11 2 10 17 17 15 14
12 10 9 9 3 2 4 4 3 0 7 5 5 2 3 3 4 2 2 2 5 6 2 3 5 3 4 5 6 3 1 3 6 5 5 7 2 8 2 10 11 14 16 14 12
12 11 10 3 2 2 4 4 1 4 11 3 6 6 5 5 4 4 2 3 2 3 6 10 2 3 4 2 4 5 3 7 6 3 3 12 8 4 3 8 9 13 13 12 11
7 11 9 4 3 6 3 1 3 8 2 6 5 6 7 6 7 6 6 5 5 4 6 5 12 4 3 2 3 2 3 4 2 1 6 5 5 6 5 7 14 16 12 10 9
7 8 3 3 6 5 2 2 6 1 4 2 2 5 6 9 5 7 6 5 11 5 3 2 2 10 6 6 2 6 5 5 6 3 5 8 6 4 11 15 16 14 12 10 8
10 2 3 4 8 3 2 6 4 7 1 3 4 4 7 5 2 6 9 7 4 5 5 3 2 4 4 2 2 3 3 2 3 2 2 6 6 5 14 12 11 11 10 9 7
2 2 2 9 8 3 3 6 3 6 6 4 1 6 5 3 2 6 8 3 5 3 5 2 5 6 2 3 1 1 2 2 1 3 6 5 3 6 8 10 8 8 7 7 6
3 2 1 5 3 2 2 5 5 8 2 2 5 7 5 2 8 4 4 3 5 6 5 3 3 3 4 5 3 0 1 3 1 4 6 9 5 5 12 9 7 5 5 5 5
2 2 3 3 5 3 8 7 4 6 3 5 4 3 3 3 1 3 4 11 4 3 3 3 3 4 6 9 7 5 8 8 7 6 4 7 16 13 14 9 6 4 3 3 2
2 2 2 1 5 6 4 4 7 5 5 8 10 7 4 8 4 9 7 4 9 4 2 2 2 4 8 4 4 6 4 3 6 1 10 9 8 5 9 9 6 5 3 4 6
2 3 3 3 3 9 10 8 6 7 4 3 3 8 9 10 11 4 5 3 5 4 5 4 3 5 7 7 4 4 6 9 5 5 8 13 14 19 16 13 4 5 4 4 5
3 5 3 5 11 11 8 4 14 10 6 4 5 14 10 7 7 14 9 5 6 3 4 3 4 4 9 8 3 7 16 17 14 17 12 23 19 21 17 8 4 4 6 6 6
3 3 1 3 3 14 12 11 12 6 8 6 9 4 4 8 4 2 5 2 2 2 4 3 2 3 8 5 8 13 18 11 14 16 17 17 22 10 5 5 2 7 7 7 7
1 1 1 3 3 6 12 15 8 7 2 4 2 6 3 3 7 6 5 3 2 4 5 6 3 3 7 4 5 10 14 16 13 15 9 13 5 2 1 3 1 4 5 8 9
Wind_Direction
8 7 5 4 357 354 350 347 343 339 335 332 332 333 329 326 305 223 251 218 124 161 226 160 216 215 247 229 283 301 295 277 290 309 214 132 185 5 158 270 279 215 236 152 141
352 350 352 349 347 342 341 339 337 331 327 328 328 329 329 331 278 256 60 138 136 158 208 190 199 185 261 214 176 246 241 266 327 350 338 339 351 333 304 302 279 282 246 199 154
336 340 338 337 337 337 335 331 329 325 321 320 320 322 325 319 277 74 15 138 165 188 286 244 300 259 245 255 208 211 233 299 321 28 17 328 317 283 306 263 254 278 317 321 217
314 323 325 326 330 331 330 327 327 321 315 313 313 316 325 263 296 79 309 151 176 203 262 224 238 210 228 247 214 244 263 273 270 342 347 297 314 299 282 261 280 276 282 273 276
298 306 310 316 320 323 324 324 323 317 311 310 308 316 297 229 258 94 127 140 164 217 231 227 237 230 249 259 322 273 251 278 321 313 266 278 267 266 275 276 278 271 270 285 293
281 289 299 307 313 319 323 322 320 315 308 301 294 300 246 248 109 86 107 154 200 218 216 244 252 21 309 279 264 316 338 294 274 264 262 268 282 297 270 271 282 298 279 264 245
278 285 294 306 314 318 317 317 316 311 300 297 247 223 258 249 51 117 165 176 290 247 255 249 335 296 345 302 12 339 299 280 263 245 202 84 294 229 256 292 295 290 289 311 313
273 283 292 301 309 314 314 314 316 312 321 346 172 223 257 357 3 208 168 140 213 193 307 13 6 283 269 341 306 255 256 305 161 87 115 121 272 292 348 353 300 288 312 296 292
267 275 287 298 308 311 309 309 297 302 338 154 213 252 260 207 167 45 317 272 140 121 34 162 218 234 167 225 275 227 252 250 292 197 130 174 263 275 274 277 277 298 293 299 313
250 266 279 295 304 311 313 285 263 287 225 236 265 274 181 130 105 84 40 258 180 150 172 203 210 211 210 207 225 275 301 303 301 316 322 264 254 300 296 268 282 300 301 322 44
237 252 268 290 305 315 334 290 225 189 238 224 83 276 131 104 188 178 165 165 200 217 208 195 213 206 226 227 249 320 288 287 284 293 293 284 308 287 275 288 287 294 283 76 70
226 241 262 283 301 309 292 281 79 180 299 253 251 271 145 17 239 159 184 184 187 211 215 127 228 239 272 299 295 302 293 283 271 293 340 297 291 276 276 272 253 85 57 75 76
219 228 236 276 308 291 250 61 110 276 253 244 211 237 116 179 234 156 179 198 195 218 232 220 243 316 283 276 278 257 262 297 300 340 261 287 267 262 284 255 117 95 86 71 62
219 212 226 240 285 222 220 131 139 343 273 208 200 161 142 231 216 62 327 315 227 237 236 256 165 319 282 249 256 289 164 26 324 356 264 42 284 295 276 25 104 83 74 69 66
213 208 212 206 335 224 61 102 99 180 275 96 141 100 102 207 127 104 39 174 248 194 246 257 139 168 203 216 186 227 156 236 238 237 314 238 241 261 112 106 91 86 82 76 71
207 203 193 189 176 81 73 57 119 126 241 161 132 170 166 177 150 131 184 247 16 296 227 255 39 259 240 133 189 74 283 251 235 207 255 235 178 291 71 135 102 94 84 83 74
197 222 177 162 168 135 151 53 158 219 202 155 182 166 216 163 160 189 167 189 175 175 202 209 214 206 211 198 109 130 294 313 341 181 220 83 1 245 285 100 132 118 106 95 87
120 127 111 107 124 135 85 98 231 301 299 51 110 196 195 153 201 200 177 225 217 245 305 267 306 168 173 220 116 184 202 174 237 233 294 352 270 233 96 92 94 94 92 84 71
126 103 122 152 144 145 146 205 215 210 353 15 23 228 199 186 65 182 217 241 55 174 206 350 207 113 190 47 101 20 184 335 322 83 359 199 244 91 110 96 86 82 73 70 65
95 110 157 141 152 137 186 207 252 304 28 16 310 197 224 263 264 191 230 77 107 97 75 23 310 254 55 83 49 158 -0 328 309 275 235 250 278 250 146 110 75 56 61 56 51
75 92 130 130 161 186 224 217 196 235 295 254 254 252 252 294 265 250 325 123 134 173 139 78 181 243 347 191 204 55 216 211 239 232 262 285 264 88 94 85 84 60 38 44 27
125 171 171 165 204 191 201 179 163 172 150 186 184 147 258 88 186 41 290 337 8 82 167 177 85 267 258 306 312 265 267 275 243 251 241 258 265 89 112 110 107 76 49 19 43
188 183 141 160 238 198 152 160 204 176 195 188 193 191 146 194 206 204 236 47 9 72 48 47 105 295 322 249 51 48 336 311 5 177 248 260 258 5 139 115 94 72 39 359 24
133 223 177 216 226 237 215 198 209 202 195 208 238 177 167 223 220 215 182 98 73 86 43 19 155 188 236 253 89 286 285 284 309 270 294 263 291 297 298 319 66 94 75 39 354
217 222 205 198 215 215 218 219 219 211 203 189 237 226 222 215 235 239 235 145 78 95 63 94 248 201 263 288 311 259 263 274 268 263 256 277 278 274 290 313 40 31 37 12 353
206 191 268 315 198 200 215 215 220 212 168 204 223 173 227 228 178 97 95 103 137 44 103 1 257 69 276 268 266 276 266 263 257 255 256 266 268 316 58 70 46 45 14 334 310
155 27 313 174 180 202 213 218 215 190 52 41 56 126 161 70 92 84 41 53 91 141 149 151 164 122 262 83 28 295 255 235 245 251 260 262 245 314 192 222 22 13 309 307 311